Weather History for Miles City, MT

Change the Weather History Date:

Monday, May 27, 2013

  Actual Average Record
Temperature  
Mean Temperature 61 °F 59 °F  
Max Temperature 70 °F 72 °F 96 °F (1969)
Min Temperature 51 °F 47 °F 30 °F (1965)
Degree Days  
Heating Degree Days 4 7  
Month to date heating degree days 174 278  
Since 1 July heating degree days 7059 7524  
Cooling Degree Days 0 1  
Month to date cooling degree days 13 14  
Year to date cooling degree days 13 15  
Growing Degree Days 10 (Base 50)    
Moisture  
Dew Point 52 °F    
Average Humidity 76    
Maximum Humidity 93    
Minimum Humidity 58    
Precipitation  
Precipitation 0.54 in 0.08 in 0.80 in (1987)
Month to date precipitation 3.04 1.84  
Year to date precipitation 4.87 4.36  
Sea Level Pressure  
Sea Level Pressure 29.76 in    
Wind  
Wind Speed 7 mph (West)    
Max Wind Speed 38 mph    
Max Gust Speed 45 mph    
Visibility 8 miles    
Events Rain , Thunderstorm    
T = Trace of Precipitation, MM = Missing Value Source: NWS Daily Summary

Daily Weather History Graph

Daily Weather History Graph

Search for Another Location

Airport:

Trip Planner

Search our weather history database for the weather conditions in past years. The results will help you decide how hot, cold, wet, or windy it might be!

Date:

Astronomy

May. 27, 2013 Rise Set
Actual Time 5:17 AM MDT 8:44 PM MDT
Civil Twilight 4:40 AM MDT 9:21 PM MDT
Nautical Twilight 3:51 AM MDT 10:10 PM MDT
Astronomical Twilight 2:48 AM MDT 11:15 PM MDT
Moon 11:20 PM MDT (5/27) 8:01 AM MDT (5/27)
Length of Visible Light 16h 40m
Length of Day
15h 26m
Waning Gibbous, 90% of the Moon is Illuminated
May 27
Waning Gibbous
May 31
Last Quarter
Jun 8
New
Jun 16
First Quarter
Jun 23
Full

Hourly Weather History & Observations

Time (MDT) Temp. Dew Point Humidity Pressure Visibility Wind Dir Wind Speed Gust Speed Precip Events Conditions
12:22 AM 55.4 °F 51.8 °F 88% 29.79 in 8.0 mi North 24.2 mph 33.4 mph 0.06 in Rain Rain
12:53 AM 57.9 °F 52.0 °F 81% 29.77 in 10.0 mi NNW 17.3 mph - 0.07 in   Mostly Cloudy
1:53 AM 57.0 °F 52.0 °F 83% 29.75 in 10.0 mi ENE 9.2 mph - N/A   Scattered Clouds
2:53 AM 55.9 °F 51.1 °F 84% 29.76 in 10.0 mi ENE 8.1 mph - N/A   Clear
3:53 AM 55.9 °F 51.1 °F 84% 29.77 in 10.0 mi ENE 4.6 mph - N/A   Clear
4:53 AM 53.1 °F 51.1 °F 93% 29.79 in 10.0 mi WNW 6.9 mph - N/A   Clear
5:53 AM 53.1 °F 50.0 °F 89% 29.82 in 10.0 mi NNW 3.5 mph - N/A   Clear
6:53 AM 57.0 °F 52.0 °F 83% 29.80 in 10.0 mi Calm Calm - N/A   Clear
7:53 AM 59.0 °F 52.0 °F 78% 29.79 in 10.0 mi Calm Calm - N/A   Overcast
8:53 AM 61.0 °F 53.1 °F 75% 29.76 in 10.0 mi West 6.9 mph - N/A   Overcast
9:53 AM 60.1 °F 52.0 °F 75% 29.78 in 10.0 mi West 9.2 mph - N/A   Overcast
10:48 AM 57.2 °F 55.4 °F 94% 29.83 in 2.5 mi SW 6.9 mph - 0.08 in Rain Rain
10:53 AM 57.9 °F 55.0 °F 90% 29.81 in 3.0 mi WSW 10.4 mph - 0.09 in Rain Rain
11:16 AM 57.2 °F 55.4 °F 94% 29.82 in 2.0 mi West 4.6 mph - 0.07 in Rain Rain
11:32 AM 57.2 °F 53.6 °F 88% 29.82 in 4.0 mi WSW 6.9 mph - 0.12 in Rain Rain
11:53 AM 57.0 °F 54.0 °F 89% 29.79 in 6.0 mi WSW 8.1 mph - 0.15 in Rain Light Rain
12:53 PM 61.0 °F 55.0 °F 81% 29.73 in 10.0 mi East 9.2 mph - 0.02 in   Scattered Clouds
1:53 PM 66.0 °F 54.0 °F 65% 29.71 in 10.0 mi NNE 8.1 mph - N/A   Mostly Cloudy
2:53 PM 68.0 °F 54.0 °F 61% 29.71 in 10.0 mi NNW 8.1 mph - N/A   Scattered Clouds
3:53 PM 66.9 °F 51.1 °F 57% 29.70 in 10.0 mi WNW 3.5 mph - N/A   Scattered Clouds
4:24 PM 55.4 °F 48.2 °F 77% 29.79 in 10.0 mi West 25.3 mph 41.4 mph 0.01 in Rain , Thunderstorm Light Rain
4:41 PM 53.6 °F 50.0 °F 88% 29.80 in 5.0 mi WSW 19.6 mph 26.5 mph 0.04 in Rain , Thunderstorm Light Rain
4:53 PM 54.0 °F 51.1 °F 90% 29.80 in 5.0 mi WSW 17.3 mph 26.5 mph 0.06 in Rain , Thunderstorm Rain
5:03 PM 53.6 °F 51.8 °F 94% 29.79 in 3.0 mi West 20.7 mph 26.5 mph 0.04 in Rain Rain
5:53 PM 54.0 °F 52.0 °F 93% 29.78 in 7.0 mi SW 8.1 mph - 0.15 in Rain Light Rain
6:53 PM 55.0 °F 52.0 °F 89% 29.69 in 10.0 mi North 12.7 mph - 0.01 in Rain Light Rain
7:27 PM 55.4 °F 51.8 °F 88% 29.73 in 10.0 mi West 12.7 mph - 0.00 in   Overcast
7:34 PM 55.4 °F 51.8 °F 88% 29.73 in 10.0 mi West 11.5 mph - 0.00 in   Overcast
7:53 PM 55.0 °F 52.0 °F 89% 29.71 in 10.0 mi West 10.4 mph - 0.00 in   Overcast
8:53 PM 55.0 °F 52.0 °F 89% 29.73 in 10.0 mi SW 5.8 mph - N/A   Mostly Cloudy
9:53 PM 55.0 °F 52.0 °F 89% 29.73 in 10.0 mi South 4.6 mph - 0.01 in Rain Light Rain
10:53 PM 55.0 °F 52.0 °F 89% 29.73 in 10.0 mi SE 3.5 mph - 0.05 in Rain Light Rain
11:53 PM 53.1 °F 51.1 °F 93% 29.72 in 10.0 mi SSW 4.6 mph - 0.00 in   Clear